[[{"header":{"parameterUnit":"m.s-1","parameterCategory":1,"la1":30.2991,"la2":30.254,"lo1":-89.0895,"lo2":-89.0444,"dy":0.0017,"dx":0.0017,"nx":28,"ny":28,"refTime":"2025-09-02T21:00:00:Z","depth":0,"parameterNumber":2,"parameterNumberName":"U-component_of_WINDS"},"data":[0,0,0,0,0,0,0,0,0,0,0,0,0,0,0,0,0,0,0,0,0,0,0,0,0,0,0,0,0,0,0,0,0,0,0,0,0,0,0,0,0,0,0,0,0,0,0,0,0,0,0,0,0,0,0,0,0,0,0.3507,0.3507,0,0.3473,0.3473,0.3472,0.3463,0.3463,0.3464,0.3464,0.3427,0.3426,0.3425,0,0,0,0,0,0,0,0,0,0,0,0,0,0.3561,0.356,0.3507,0.3507,0.3506,0.3473,0.3473,0.3472,0.3463,0.3463,0.3464,0.3464,0.3428,0.3426,0.3425,0,0,0,0,0,0,0,0,0,0,0,0,0,0.3534,0.356,0.3507,0.3498,0.3497,0.3473,0.3473,0.3472,0.3463,0.3463,0.3464,0.3464,0.3428,0.3427,0.3425,0.3408,0,0,0.342,0.3419,0,0,0,0,0,0,0,0,0.3535,0.3532,0.35,0.3498,0.3497,0.3473,0.3478,0.3451,0.3463,0.3476,0.3464,0.3464,0.3442,0.3439,0.3432,0.3406,0.3405,0.3419,0.3418,0.3418,0.3417,0,0,0,0,0,0,0,0.3537,0.3533,0.3494,0.3499,0.3498,0.3494,0.3491,0.3473,0.3458,0.3475,0.3474,0.347,0.3441,0.3434,0.3431,0.3404,0.3419,0.3418,0.3417,0.3416,0.3361,0.336,0,0,0,0,0,0,0.3541,0.3535,0.3495,0.3493,0.3517,0.3493,0.3489,0.348,0.3458,0.3455,0.347,0.347,0.3437,0.3433,0.343,0.3407,0.3418,0.3416,0.3415,0.3361,0.336,0.336,0,0,0,0,0,0,0.3542,0.3537,0.3496,0.3513,0.3508,0.3492,0.3482,0.3479,0.3472,0.3454,0.3451,0.3465,0.3437,0.3432,0.3413,0.3406,0.3415,0.3414,0.3362,0.3361,0.336,0.3363,0,0,0,0,0,0,0.3544,0.3538,0.3532,0.3513,0.3507,0.3481,0.3482,0.3479,0.3469,0.3469,0.3449,0.3446,0.3437,0.3416,0.3411,0.3404,0.3412,0.3362,0.3361,0.336,0.3363,0.3362,0.3362,0,0,0,0,0,0.3546,0.3534,0.3532,0.3527,0.35,0.348,0.3477,0.3467,0.3469,0.3462,0.345,0.3447,0.3408,0.3414,0.3409,0.3401,0.3362,0.3361,0.3361,0.3364,0.3363,0.3362,0,0,0,0,0,0,0.3553,0.3532,0.3529,0.3511,0.3498,0.3479,0.3471,0.3466,0.3451,0.3452,0.3439,0.3435,0.3416,0.3407,0.3414,0.3382,0.3385,0.3383,0.3389,0.3388,0.3387,0.3389,0.3411,0,0,0,0,0,0.3552,0.3539,0.3521,0.3507,0.3501,0.3487,0.3478,0.3471,0.3457,0.3451,0.3438,0.3423,0.3407,0.3397,0.3382,0.3362,0.3357,0.3354,0.3353,0.3352,0.335,0.3337,0.3335,0.3357,0.3357,0.3357,0,0,0.3551,0.3538,0.3531,0.3508,0.3497,0.3483,0.3482,0.3467,0.3456,0.3448,0.3429,0.3419,0.3401,0.3382,0.3372,0.3373,0.3343,0.3351,0.3351,0.3349,0.3336,0.3334,0.3332,0.3356,0.3356,0.3356,0,0,0.3541,0.3531,0.3517,0.3506,0.3489,0.3479,0.3476,0.3457,0.345,0.3431,0.3424,0.341,0.3384,0.3371,0.3361,0.3345,0.334,0.334,0.3335,0.3323,0.3321,0.3319,0.3312,0.331,0.3339,0.3339,0.3339,0,0.3542,0.3521,0.3511,0.3496,0.3486,0.3478,0.3463,0.3453,0.3431,0.3424,0.3425,0.339,0.3378,0.3354,0.335,0.3343,0.3337,0.3342,0.3322,0.332,0.3319,0.3312,0.3309,0.3339,0.3339,0.3339,0.3339,0,0.3522,0.3507,0.3498,0.3477,0.3466,0.3451,0.3438,0.3428,0.3422,0.3412,0.3391,0.3376,0.3356,0.335,0.3344,0.3325,0.3326,0.3325,0.3327,0.3317,0.331,0.3307,0.3339,0.3339,0.3339,0.3339,0,0,0.3516,0.3489,0.3486,0.3476,0.3455,0.3443,0.3427,0.3409,0.3399,0.3384,0.337,0.3347,0.3345,0.3334,0.3326,0.3316,0.3301,0.3316,0.3315,0.3312,0.3277,0.3277,0.3274,0.3298,0.3298,0.3297,0.3278,0,0.3503,0.3475,0.3465,0.3442,0.3427,0.3419,0.3405,0.339,0.338,0.3365,0.3353,0.3337,0.3337,0.333,0.3318,0.3306,0.3294,0.3307,0.3283,0.3282,0.3287,0.327,0.3271,0.3253,0.3275,0.3274,0.3274,0,0.3485,0.3469,0.3444,0.3424,0.3418,0.3405,0.3386,0.3373,0.3355,0.3348,0.3335,0.3327,0.3309,0.3313,0.3286,0.3295,0.3285,0.3277,0.3276,0.3272,0.3277,0.3265,0.3247,0.3244,0.327,0.327,0.3271,0,0.3482,0.3455,0.3436,0.3427,0.3404,0.3395,0.3384,0.3367,0.3356,0.3339,0.3331,0.3312,0.3302,0.3286,0.3274,0.3278,0.3247,0.3251,0.324,0.324,0.3234,0.3234,0.3212,0.3229,0.3229,0.3229,0.3229,0,0.3468,0.3453,0.3434,0.3422,0.3404,0.3392,0.3374,0.3363,0.3347,0.3332,0.3324,0.331,0.3294,0.3278,0.3268,0.3246,0.3242,0.3234,0.3232,0.3235,0.3235,0.3227,0.3227,0.3228,0.3228,0.3228,0.3229,0,0.3462,0.3449,0.3427,0.3406,0.34,0.3388,0.3369,0.3357,0.3346,0.3326,0.3321,0.3304,0.3283,0.3269,0.3243,0.3236,0.3213,0.3211,0.3219,0.3217,0.3206,0.3207,0.3178,0.3172,0.3194,0.3194,0.3193,0,0.3453,0.3441,0.3418,0.3408,0.3397,0.3381,0.3369,0.3356,0.3343,0.3321,0.3311,0.329,0.3273,0.3241,0.3225,0.3205,0.3201,0.3192,0.3198,0.3201,0.3199,0.32,0.3197,0.3191,0.3191,0.3191,0.3191,0,0.344,0.3433,0.3417,0.3397,0.3383,0.3368,0.3351,0.3343,0.3327,0.3313,0.3292,0.3279,0.3252,0.323,0.3208,0.3196,0.319,0.3189,0.3185,0.3187,0.3192,0.3188,0.3215,0.319,0.319,0.319,0.319,0.319,0.3431,0.3419,0.3401,0.3382,0.3368,0.3353,0.334,0.3327,0.3309,0.3286,0.3279,0.3257,0.3238,0.3207,0.3195,0.3176,0.3177,0.3172,0.317,0.3169,0.3168,0.3196,0.3172,0.3172,0.3172,0.3172,0.3172,0,0.3416,0.3403,0.3386,0.3363,0.3348,0.3344,0.3325,0.3313,0.3293,0.3276,0.3259,0.3234,0.3212,0.3194,0.3172,0.3161,0.3157,0.3155,0.3155,0.3152,0.317,0.3174,0.3158,0.3158,0.3158,0.3158,0.3158,0.3158,0.3406,0.3385,0.3376,0.3348,0.3335,0.3313,0.3303,0.3288,0.3274,0.3246,0.3228,0.3217,0.3198,0.3174,0.3154,0.3149,0.3141,0.3139,0.3133,0.315,0.3151,0.3153,0.3157,0.3138,0.3138,0.3117,0.3117,0.3117]},{"header":{"parameterUnit":"m.s-1","parameterCategory":1,"la1":30.2991,"la2":30.254,"lo1":-89.0895,"lo2":-89.0444,"dy":0.0017,"dx":0.0017,"nx":28,"ny":28,"refTime":"2025-09-02T21:00:00:Z","depth":0,"parameterNumber":3,"parameterNumberName":"V-component_of_WINDS"},"data":[0,0,0,0,0,0,0,0,0,0,0,0,0,0,0,0,0,0,0,0,0,0,0,0,0,0,0,0,0,0,0,0,0,0,0,0,0,0,0,0,0,0,0,0,0,0,0,0,0,0,0,0,0,0,0,0,0,0,3.7039,3.7039,0,3.7065,3.7065,3.7066,3.7011,3.7009,3.7007,3.7006,3.7031,3.7033,3.7036,0,0,0,0,0,0,0,0,0,0,0,0,0,3.6939,3.6941,3.7039,3.7039,3.704,3.7065,3.7065,3.7066,3.7011,3.7009,3.7007,3.7005,3.703,3.7033,3.7036,0,0,0,0,0,0,0,0,0,0,0,0,0,3.6975,3.6942,3.7039,3.7016,3.7014,3.7065,3.7065,3.7066,3.7012,3.7009,3.7006,3.7004,3.7029,3.7033,3.7036,3.7111,0,0,3.7047,3.7048,0,0,0,0,0,0,0,0,3.6973,3.6979,3.7019,3.7017,3.7015,3.7032,3.7039,3.7081,3.7012,3.7012,3.7006,3.7003,3.7033,3.7036,3.7047,3.7112,3.7113,3.7047,3.7049,3.7051,3.7052,0,0,0,0,0,0,0,3.6971,3.6978,3.7049,3.7019,3.7017,3.7003,3.7005,3.7047,3.7038,3.7012,3.7008,3.7012,3.7032,3.7044,3.7047,3.7114,3.7047,3.705,3.7052,3.7054,3.7238,3.7241,0,0,0,0,0,0,3.6972,3.6976,3.7048,3.705,3.6987,3.7007,3.7009,3.7029,3.7037,3.7036,3.7014,3.701,3.7039,3.7043,3.7048,3.7133,3.7051,3.7054,3.7056,3.7235,3.7238,3.7241,0,0,0,0,0,0,3.697,3.6979,3.7047,3.7012,3.702,3.7011,3.7034,3.7031,3.7043,3.7039,3.7036,3.7029,3.7037,3.7043,3.7095,3.7134,3.7056,3.7059,3.7232,3.7236,3.724,3.7306,0,0,0,0,0,0,3.6967,3.6978,3.7008,3.7013,3.7022,3.7095,3.7037,3.7034,3.7049,3.7043,3.7051,3.705,3.7036,3.709,3.7099,3.7137,3.7062,3.7228,3.7234,3.7239,3.7301,3.7312,3.7322,0,0,0,0,0,3.6964,3.7026,3.7009,3.7018,3.7058,3.7097,3.7102,3.7085,3.7053,3.7081,3.7078,3.705,3.7129,3.7096,3.7105,3.7145,3.7226,3.7232,3.7238,3.7296,3.731,3.7322,0,0,0,0,0,0,3.7025,3.7026,3.7008,3.7074,3.7086,3.7088,3.7124,3.7101,3.7122,3.7116,3.7093,3.7095,3.7151,3.7153,3.7117,3.7216,3.7171,3.718,3.7212,3.7226,3.7236,3.7233,3.7064,0,0,0,0,0,3.7046,3.7079,3.7078,3.7136,3.7143,3.7132,3.7149,3.7134,3.7146,3.7151,3.7151,3.7163,3.719,3.7208,3.7233,3.7301,3.7301,3.7333,3.7344,3.7353,3.736,3.7393,3.7406,3.7262,3.7262,3.7262,0,0,3.709,3.7095,3.7117,3.7148,3.7156,3.7188,3.7137,3.7175,3.7198,3.7156,3.7204,3.7206,3.7217,3.7277,3.7303,3.728,3.74,3.7361,3.7368,3.737,3.7401,3.7414,3.7427,3.7266,3.7266,3.7265,0,0,3.7186,3.7195,3.7242,3.7251,3.7263,3.7255,3.7267,3.7272,3.7271,3.7319,3.7287,3.7315,3.7363,3.7371,3.7382,3.748,3.7453,3.7489,3.7544,3.7577,3.7588,3.7598,3.763,3.7642,3.7496,3.7496,3.7496,0,3.7239,3.7288,3.7269,3.7308,3.7322,3.7285,3.7332,3.7341,3.7361,3.7371,3.7345,3.7403,3.7408,3.7468,3.7491,3.7502,3.7513,3.7487,3.7588,3.7598,3.7607,3.7637,3.765,3.75,3.75,3.7499,3.7499,0,3.7351,3.7385,3.7422,3.7441,3.7459,3.7502,3.7488,3.7509,3.7492,3.7487,3.7535,3.754,3.7564,3.7578,3.7563,3.7635,3.762,3.7592,3.7546,3.7625,3.7653,3.7664,3.7506,3.7504,3.7503,3.7502,0,0,3.7487,3.7493,3.7507,3.7514,3.7524,3.7549,3.759,3.7613,3.7629,3.7644,3.7676,3.7717,3.769,3.7702,3.7688,3.7717,3.779,3.7685,3.7685,3.7702,3.7866,3.7885,3.7899,3.7774,3.7776,3.7778,3.7864,0,3.7579,3.7649,3.7632,3.77,3.7729,3.7695,3.7729,3.7738,3.7734,3.7758,3.7753,3.7781,3.7746,3.7752,3.778,3.7775,3.7822,3.7769,3.7801,3.7802,3.7796,3.7914,3.7935,3.8017,3.7876,3.7877,3.7879,0,3.7697,3.7715,3.7786,3.7788,3.78,3.7832,3.785,3.7874,3.7883,3.7878,3.7891,3.787,3.7908,3.7864,3.7914,3.7879,3.7891,3.789,3.7893,3.7893,3.7844,3.7915,3.8043,3.8054,3.7896,3.7895,3.7894,0,3.7785,3.7827,3.7874,3.7882,3.7887,3.7909,3.7912,3.7918,3.7933,3.7949,3.7957,3.7979,3.7989,3.8005,3.799,3.796,3.8043,3.7998,3.8037,3.8038,3.8055,3.8053,3.8183,3.8067,3.8067,3.8067,3.8066,0,3.7889,3.7933,3.7913,3.7942,3.7989,3.7969,3.8016,3.8015,3.8021,3.8048,3.802,3.8045,3.8025,3.8048,3.8037,3.8079,3.8085,3.8081,3.8076,3.8082,3.8082,3.8087,3.808,3.807,3.8069,3.8069,3.8068,0,3.7995,3.7984,3.8032,3.8032,3.8033,3.8068,3.8067,3.8093,3.8086,3.812,3.8127,3.8117,3.8143,3.813,3.8157,3.8149,3.8203,3.8193,3.82,3.8196,3.8236,3.8231,3.8372,3.8388,3.8264,3.8265,3.8266,0,3.8061,3.8093,3.8096,3.8112,3.8117,3.8143,3.8157,3.8138,3.8154,3.8165,3.8189,3.8212,3.823,3.8273,3.8267,3.8287,3.8276,3.8323,3.8278,3.8282,3.8273,3.827,3.8272,3.8332,3.8333,3.8334,3.8335,0,3.8178,3.817,3.8191,3.821,3.8227,3.8241,3.8253,3.8267,3.8248,3.8267,3.8293,3.8306,3.8333,3.8356,3.8373,3.8375,3.8352,3.835,3.836,3.8364,3.8365,3.8362,3.8222,3.8346,3.8345,3.8344,3.8344,3.8343,3.8264,3.829,3.8295,3.8319,3.8325,3.8336,3.836,3.8355,3.8377,3.8397,3.8385,3.8414,3.842,3.8441,3.8446,3.8468,3.8449,3.8464,3.8467,3.847,3.8474,3.8364,3.8472,3.8471,3.8471,3.8471,3.847,0,3.8377,3.8378,3.84,3.8416,3.8435,3.8411,3.8422,3.8439,3.8465,3.8473,3.849,3.8519,3.854,3.8536,3.8555,3.8574,3.8563,3.8579,3.8576,3.8577,3.8492,3.848,3.8587,3.8587,3.8587,3.8587,3.8587,3.8587,3.8437,3.8479,3.8472,3.8516,3.8517,3.8546,3.8554,3.8563,3.8569,3.8601,3.8619,3.8616,3.8619,3.8637,3.8656,3.8654,3.8661,3.8681,3.8675,3.8595,3.8583,3.8572,3.8561,3.8683,3.8683,3.8757,3.8758,3.8758]}]]